Location: Bidwell Hollow
(37.7387°N, 90.1707°W)
Time: 10:28:32
(UTC+00:00)

Vanguard 2 Rocket - All Passes

Search period start: 15 May 2026 00:00
Search period end: 25 May 2026 00:00
Orbit: 553 x 3286 km, 32.9° (Epoch: 13 May)

Date Brightness Start Highest point End Pass type
(mag) Time Alt. Az. Time Alt. Az. Time Alt. Az.
15 May - 01:36:07 10° WSW 01:41:59 12° SW 01:47:16 10° SSW visible
15 May - 13:17:20 10° SE 13:19:34 11° SE 13:21:58 10° ESE daylight
15 May - 15:21:04 10° SSW 15:31:22 42° SE 15:47:19 10° E daylight
15 May - 17:32:31 10° WSW 17:46:31 71° SSE 18:06:27 10° E daylight
15 May - 19:46:40 10° W 20:04:10 74° S 20:23:51 10° ESE daylight
15 May - 22:02:55 10° W 22:21:34 53° SSW 22:38:09 10° SE daylight
16 May - 00:23:09 10° W 00:36:17 23° SW 00:47:15 10° S daylight
16 May - 14:17:43 10° S 14:25:55 28° SE 14:38:04 10° E daylight
16 May - 16:27:30 10° SW 16:39:29 62° SSE 16:58:07 10° E daylight
16 May - 18:40:34 10° W 18:56:14 76° S 19:16:29 10° E daylight
16 May - 20:55:42 10° W 21:14:00 62° SSW 21:32:26 10° SE daylight
16 May - 23:13:33 10° W 23:30:01 34° SW 23:44:06 10° SSE daylight
17 May - 13:15:55 10° SSE 13:21:04 16° SE 13:27:41 10° E daylight
17 May - 15:23:06 10° SW 15:33:10 49° SSE 15:49:29 10° E daylight
17 May - 17:35:00 10° WSW 17:48:36 74° S 18:08:31 10° E daylight
17 May - 19:49:07 10° W 20:06:09 70° SSW 20:25:52 10° ESE daylight
17 May - 22:05:23 10° W 22:23:08 45° SSW 22:39:37 10° SSE daylight
18 May - 00:27:29 10° W 00:37:36 17° SW 00:46:38 10° SSW daylight
18 May - 14:19:24 10° SSW 14:27:36 35° SE 14:40:36 10° E daylight
18 May - 16:29:56 10° WSW 16:41:32 67° SSE 17:00:09 10° E daylight
18 May - 18:43:05 10° W 18:58:19 74° S 19:18:32 10° ESE daylight
18 May - 20:58:09 10° W 21:15:46 55° SSW 21:34:06 10° SE daylight
18 May - 23:16:40 10° W 23:31:24 27° SW 23:44:39 10° S daylight
19 May - 13:16:40 10° S 13:22:42 21° SE 13:31:13 10° E daylight
19 May - 15:25:24 10° SW 15:35:09 56° SSE 15:51:34 10° E daylight
19 May - 17:37:33 10° W 17:50:46 75° S 18:10:34 10° E daylight
19 May - 19:51:37 10° W 20:08:05 64° SSW 20:27:41 10° ESE daylight
19 May - 22:08:05 10° W 22:24:39 37° SW 22:40:40 10° SSE daylight
20 May - 00:35:06 10° WSW 00:38:59 11° SW 00:42:43 10° SW daylight
20 May - 14:21:25 10° SW 14:29:29 42° SSE 14:42:53 10° E daylight
20 May - 16:32:29 10° WSW 16:43:43 71° S 17:02:10 10° E daylight
20 May - 18:45:39 10° W 19:00:24 70° S 19:20:27 10° ESE daylight
20 May - 21:00:42 10° W 21:17:26 48° SSW 21:35:27 10° SE daylight
20 May - 23:20:32 10° W 23:32:47 20° SW 23:44:19 10° S daylight
21 May - 13:18:10 10° SSW 13:24:28 27° SE 13:34:06 10° E daylight
21 May - 15:27:52 10° WSW 15:37:17 63° SSE 15:53:36 10° E daylight
21 May - 17:40:11 10° W 17:52:58 73° S 18:12:31 10° ESE daylight
21 May - 19:54:10 10° W 20:09:57 57° SSW 20:29:15 10° SE daylight
21 May - 22:11:09 10° W 22:26:08 30° SW 22:41:10 10° SSE daylight
22 May - 12:16:23 10° SSE 12:19:59 14° SE 12:24:27 10° ESE daylight
22 May - 14:23:42 10° SW 14:31:31 49° SSE 14:45:04 10° E daylight
22 May - 16:35:08 10° WSW 16:45:59 73° S 17:04:09 10° E daylight
22 May - 18:48:15 10° W 19:02:28 65° SSW 19:22:11 10° ESE daylight
22 May - 21:03:28 10° W 21:19:06 40° SSW 21:36:26 10° SSE daylight
22 May - 23:26:07 10° WSW 23:34:15 14° SW 23:42:14 10° SSW daylight
23 May - 13:20:06 10° SSW 13:26:25 34° SE 13:36:37 10° E daylight
23 May - 15:30:28 10° WSW 15:39:34 67° SSE 15:55:37 10° E daylight
23 May - 17:42:50 10° W 17:55:11 70° S 18:14:23 10° ESE daylight
23 May - 19:56:50 10° W 20:11:50 49° SSW 20:30:31 10° SE daylight
23 May - 22:14:50 10° W 22:27:41 23° SW 22:40:55 10° S daylight
24 May - 12:17:22 10° S 12:21:51 19° SE 12:28:01 10° E daylight
24 May - 14:26:11 10° SW 14:33:45 56° SSE 14:47:10 10° E daylight
24 May - 16:37:50 10° W 16:48:18 72° S 17:06:05 10° ESE daylight
24 May - 18:50:55 10° W 19:04:31 58° SSW 19:23:41 10° SE daylight
24 May - 21:06:34 10° W 21:20:47 32° SW 21:36:52 10° SSE daylight
